• în Republica Moldova
  • Lista ţărilor
  • Pe 7 zile
  • Temperatura apei
  • Hartă satelitară
  • Meteo pe hartă
  • Widget-uri
  • user-avatar
    Intrare

    Meteo pe oră la Lubango

    Astăzi, 20 Ianuarie, Sâmbătă

    Timp Temperatura Precipitaţii Vânt Presiune Umiditate
    00:00 +16°C° 0,1 mm 1 m/s 607 mmHg 88%
    01:00 +15°C° 0 mm 1 m/s 607 mmHg 90%
    02:00 +15°C° 0,6 mm 1 m/s 607 mmHg 91%
    03:00 +15°C° 0,6 mm 1 m/s 607 mmHg 91%
    04:00 +15°C° 0,6 mm 1 m/s 607 mmHg 92%
    05:00 +15°C° 0,9 mm 1 m/s 607 mmHg 91%
    06:00 +15°C° 0,9 mm 1 m/s 607 mmHg 90%
    07:00 +16°C° 0 mm 1 m/s 608 mmHg 87%
    08:00 +19°C° 0,2 mm 1 m/s 608 mmHg 79%
    09:00 +21°C° 0,2 mm 1 m/s 609 mmHg 71%
    10:00 +21°C° 0,2 mm 2 m/s 610 mmHg 63%
    11:00 +23°C° 0,4 mm 2 m/s 609 mmHg 60%
    12:00 +24°C° 0,4 mm 2 m/s 609 mmHg 58%
    13:00 +25°C° 0 mm 2 m/s 609 mmHg 53%
    14:00 +24°C° 1,3 mm 2 m/s 609 mmHg 56%
    15:00 +24°C° 1,3 mm 2 m/s 609 mmHg 59%
    16:00 +22°C° 1,3 mm 3 m/s 608 mmHg 61%
    17:00 +21°C° 1,7 mm 2 m/s 608 mmHg 69%
    18:00 +19°C° 1,7 mm 2 m/s 607 mmHg 77%
    19:00 +18°C° 1,7 mm 1 m/s 607 mmHg 84%
    20:00 +18°C° 1,2 mm 1 m/s 607 mmHg 87%
    21:00 +16°C° 1,2 mm 1 m/s 608 mmHg 89%
    22:00 +16°C° 1,2 mm 1 m/s 608 mmHg 91%
    23:00 +16°C° 0,8 mm 1 m/s 608 mmHg 92%

    Mâine, 21 Ianuarie, Duminică

    Timp Temperatura Precipitaţii Vânt Presiune Umiditate
    00:00 +16°C° 0,8 mm 1 m/s 608 mmHg 93%
    01:00 +16°C° 0,8 mm 1 m/s 608 mmHg 93%
    02:00 +15°C° 0,9 mm 1 m/s 608 mmHg 93%
    03:00 +15°C° 0,9 mm 1 m/s 607 mmHg 94%
    04:00 +15°C° 0,9 mm 1 m/s 607 mmHg 94%
    05:00 +15°C° 0,6 mm 1 m/s 608 mmHg 94%
    06:00 +15°C° 0,6 mm 1 m/s 608 mmHg 93%
    07:00 +15°C° 0,6 mm 1 m/s 608 mmHg 93%
    08:00 +16°C° 0,3 mm 1 m/s 609 mmHg 89%
    09:00 +17°C° 0,3 mm 2 m/s 609 mmHg 86%
    10:00 +17°C° 0,3 mm 2 m/s 610 mmHg 83%
    11:00 +18°C° 0,6 mm 2 m/s 610 mmHg 80%
    12:00 +18°C° 0,6 mm 2 m/s 610 mmHg 77%
    13:00 +19°C° 0,6 mm 2 m/s 610 mmHg 75%
    14:00 +19°C° 1,1 mm 1 m/s 609 mmHg 77%
    15:00 +19°C° 1,1 mm 1 m/s 609 mmHg 78%
    16:00 +19°C° 1,1 mm 1 m/s 608 mmHg 80%
    17:00 +18°C° 1,3 mm 1 m/s 608 mmHg 83%
    18:00 +16°C° 1,3 mm 1 m/s 608 mmHg 86%
    19:00 +16°C° 1,3 mm 1 m/s 608 mmHg 90%
    20:00 +16°C° 0,7 mm 1 m/s 608 mmHg 91%
    21:00 +15°C° 0,7 mm 1 m/s 609 mmHg 91%
    22:00 +15°C° 0,7 mm 1 m/s 609 mmHg 92%
    23:00 +15°C° 0,9 mm 1 m/s 609 mmHg 93%

    Poimâine, 22 Ianuarie, Luni

    Timp Temperatura Precipitaţii Vânt Presiune Umiditate
    00:00 +15°C° 0,9 mm 1 m/s 608 mmHg 93%
    01:00 +15°C° 0,9 mm 1 m/s 608 mmHg 94%
    02:00 +14°C° 1,3 mm 1 m/s 608 mmHg 94%
    03:00 +14°C° 1,3 mm 1 m/s 608 mmHg 94%
    04:00 +13°C° 1,3 mm 0 m/s 608 mmHg 95%
    05:00 +13°C° 1,4 mm 0 m/s 608 mmHg 94%
    06:00 +13°C° 1,4 mm 0 m/s 608 mmHg 94%
    07:00 +13°C° 1,4 mm 0 m/s 609 mmHg 94%
    08:00 +14°C° 0,9 mm 0 m/s 609 mmHg 91%
    09:00 +14°C° 0,9 mm 0 m/s 609 mmHg 89%
    10:00 +15°C° 0,9 mm 0 m/s 610 mmHg 86%
    11:00 +16°C° 0,6 mm 0 m/s 610 mmHg 82%
    12:00 +19°C° 0,6 mm 1 m/s 610 mmHg 78%
    13:00 +20°C° 0,6 mm 1 m/s 610 mmHg 73%
    14:00 +20°C° 0,4 mm 1 m/s 609 mmHg 72%
    15:00 +20°C° 0,4 mm 1 m/s 609 mmHg 71%
    16:00 +19°C° 0,4 mm 2 m/s 608 mmHg 70%
    17:00 +18°C° 0,3 mm 2 m/s 608 mmHg 76%
    18:00 +18°C° 0,3 mm 1 m/s 608 mmHg 81%
    19:00 +16°C° 0,3 mm 1 m/s 608 mmHg 86%
    20:00 +15°C° 0,4 mm 1 m/s 608 mmHg 88%
    21:00 +15°C° 0,4 mm 1 m/s 608 mmHg 89%
    22:00 +15°C° 0,4 mm 1 m/s 609 mmHg 91%
    23:00 +15°C° 0,3 mm 1 m/s 608 mmHg 92%

    23 Ianuarie, Marţi

    Timp Temperatura Precipitaţii Vânt Presiune Umiditate
    00:00 +14°C° 0,3 mm 1 m/s 608 mmHg 93%
    01:00 +14°C° 0,3 mm 1 m/s 608 mmHg 94%
    02:00 +14°C° 0,2 mm 1 m/s 607 mmHg 94%
    03:00 +13°C° 0,2 mm 0 m/s 607 mmHg 94%
    04:00 +13°C° 0,2 mm 0 m/s 607 mmHg 94%
    05:00 +13°C° 0,3 mm 0 m/s 607 mmHg 93%
    06:00 +14°C° 0,3 mm 0 m/s 607 mmHg 92%
    07:00 +14°C° 0,3 mm 0 m/s 608 mmHg 90%
    08:00 +14°C° 0,9 mm 0 m/s 608 mmHg 88%
    09:00 +15°C° 0,9 mm 0 m/s 608 mmHg 85%
    10:00 +16°C° 0,9 mm 0 m/s 609 mmHg 83%
    11:00 +16°C° 1,5 mm 0 m/s 609 mmHg 81%
    12:00 +19°C° 1,5 mm 1 m/s 608 mmHg 80%
    13:00 +19°C° 1,5 mm 1 m/s 608 mmHg 78%
    14:00 +19°C° 0,7 mm 1 m/s 607 mmHg 78%
    15:00 +19°C° 0,7 mm 1 m/s 607 mmHg 77%
    16:00 +19°C° 0,7 mm 1 m/s 607 mmHg 77%
    17:00 +19°C° 0,4 mm 1 m/s 607 mmHg 81%
    18:00 +18°C° 0,4 mm 1 m/s 607 mmHg 85%
    19:00 +16°C° 0,4 mm 1 m/s 607 mmHg 88%
    20:00 +16°C° 0,5 mm 1 m/s 607 mmHg 89%
    21:00 +16°C° 0,5 mm 1 m/s 607 mmHg 90%
    22:00 +15°C° 0,5 mm 1 m/s 608 mmHg 90%
    23:00 +15°C° 1 mm 1 m/s 607 mmHg 91%

    24 Ianuarie, Miercuri

    Timp Temperatura Precipitaţii Vânt Presiune Umiditate
    00:00 +15°C° 1 mm 1 m/s 607 mmHg 92%
    01:00 +15°C° 1 mm 1 m/s 607 mmHg 93%
    02:00 +15°C° 1,3 mm 1 m/s 607 mmHg 93%
    03:00 +15°C° 1,3 mm 1 m/s 607 mmHg 93%
    04:00 +14°C° 1,3 mm 1 m/s 606 mmHg 94%
    05:00 +15°C° 1,1 mm 1 m/s 607 mmHg 93%
    06:00 +15°C° 1,1 mm 1 m/s 607 mmHg 93%
    07:00 +15°C° 1,1 mm 1 m/s 608 mmHg 93%
    08:00 +15°C° 0,4 mm 1 m/s 608 mmHg 89%
    09:00 +16°C° 0,4 mm 1 m/s 609 mmHg 86%
    10:00 +16°C° 0,4 mm 1 m/s 609 mmHg 82%
    11:00 +18°C° 0,3 mm 1 m/s 609 mmHg 77%
    12:00 +19°C° 0,3 mm 1 m/s 608 mmHg 71%
    13:00 +20°C° 0,3 mm 1 m/s 608 mmHg 66%
    14:00 +20°C° 0,4 mm 1 m/s 608 mmHg 65%
    15:00 +20°C° 0,4 mm 1 m/s 608 mmHg 64%
    16:00 +20°C° 0,4 mm 1 m/s 607 mmHg 63%
    17:00 +19°C° 0,2 mm 1 m/s 607 mmHg 66%
    18:00 +18°C° 0,2 mm 1 m/s 607 mmHg 70%
    19:00 +16°C° 0,2 mm 1 m/s 607 mmHg 73%
    20:00 +16°C° 0 mm 1 m/s 607 mmHg 74%
    21:00 +15°C° 0 mm 1 m/s 608 mmHg 75%
    22:00 +15°C° 0 mm 1 m/s 608 mmHg 75%
    23:00 +15°C° 0 mm 1 m/s 607 mmHg 78%

    25 Ianuarie, Joi

    Timp Temperatura Precipitaţii Vânt Presiune Umiditate
    00:00 +14°C° 0 mm 1 m/s 607 mmHg 80%
    01:00 +14°C° 0 mm 1 m/s 607 mmHg 82%
    02:00 +14°C° 0 mm 1 m/s 606 mmHg 84%
    03:00 +13°C° 0 mm 0 m/s 606 mmHg 86%
    04:00 +12°C° 0 mm 0 m/s 606 mmHg 87%
    05:00 +13°C° 0 mm 0 m/s 607 mmHg 85%
    06:00 +13°C° 0 mm 0 m/s 607 mmHg 83%
    07:00 +14°C° 0 mm 0 m/s 608 mmHg 81%
    08:00 +15°C° 0,2 mm 0 m/s 609 mmHg 76%
    09:00 +19°C° 0,2 mm 1 m/s 609 mmHg 71%
    10:00 +20°C° 0,2 mm 1 m/s 610 mmHg 65%
    11:00 +21°C° 0,4 mm 1 m/s 610 mmHg 63%
    12:00 +22°C° 0,4 mm 1 m/s 609 mmHg 61%
    13:00 +21°C° 0,4 mm 2 m/s 609 mmHg 59%
    14:00 +21°C° 0,7 mm 2 m/s 609 mmHg 61%
    15:00 +20°C° 0,7 mm 2 m/s 608 mmHg 64%
    16:00 +20°C° 0,7 mm 2 m/s 608 mmHg 66%
    17:00 +19°C° 0,6 mm 2 m/s 608 mmHg 71%
    18:00 +18°C° 0,6 mm 2 m/s 608 mmHg 76%
    19:00 +16°C° 0,6 mm 2 m/s 607 mmHg 81%
    20:00 +16°C° 0,2 mm 1 m/s 608 mmHg 83%
    21:00 +15°C° 0,2 mm 1 m/s 608 mmHg 85%
    22:00 +15°C° 0,2 mm 1 m/s 608 mmHg 87%
    23:00 +15°C° 0,1 mm 1 m/s 608 mmHg 87%
    Arată mai mult